Time,TemperatureF,DewpointF,PressureIn,WindDirection,WindDirectionDegrees,WindSpeedMPH,WindSpeedGustMPH,Humidity,HourlyPrecipIn,Conditions,Clouds,dailyrainin,SoftwareType,DateUTC
2013-06-16 00:02:00,57.0,56.0,30.15,North,359,0.0,0.0,97,0.00,,,-99.99,,2013-06-16 04:02:00,
2013-06-16 00:12:00,57.0,56.0,30.15,North,359,0.0,0.0,97,0.00,,,-99.99,,2013-06-16 04:12:00,
2013-06-16 00:23:00,57.0,56.0,30.15,North,359,0.0,0.0,97,0.00,,,-99.99,,2013-06-16 04:23:00,
2013-06-16 00:34:00,57.0,56.0,30.15,North,359,0.0,0.0,97,0.00,,,-99.99,,2013-06-16 04:34:00,
2013-06-16 00:42:00,56.0,55.0,30.15,North,359,0.0,0.0,97,0.00,,,-99.99,,2013-06-16 04:42:00,
2013-06-16 00:53:00,56.0,55.0,30.15,North,359,0.0,0.0,97,0.00,,,-99.99,,2013-06-16 04:53:00,
2013-06-16 01:02:00,56.0,55.0,30.15,North,359,0.0,0.0,97,0.00,,,-99.99,,2013-06-16 05:02:00,
2013-06-16 01:12:00,56.0,55.0,30.14,North,359,0.0,0.0,97,0.00,,,-99.99,,2013-06-16 05:12:00,
2013-06-16 01:22:00,56.0,55.0,30.14,North,359,0.0,0.0,97,0.00,,,-99.99,,2013-06-16 05:22:00,
2013-06-16 01:34:00,56.0,55.0,30.14,North,359,0.0,0.0,97,0.00,,,-99.99,,2013-06-16 05:34:00,
2013-06-16 01:43:00,56.0,55.0,30.14,North,359,0.0,0.0,97,0.00,,,-99.99,,2013-06-16 05:43:00,
2013-06-16 01:52:00,55.0,54.0,30.14,North,359,0.0,0.0,97,0.00,,,-99.99,,2013-06-16 05:52:00,
2013-06-16 02:01:00,55.0,54.0,30.14,North,359,0.0,0.0,97,0.00,,,-99.99,,2013-06-16 06:01:00,
2013-06-16 02:11:00,55.0,54.0,30.14,North,359,0.0,0.0,97,0.00,,,-99.99,,2013-06-16 06:11:00,
2013-06-16 02:22:00,55.0,54.0,30.13,North,359,0.0,0.0,97,0.00,,,-99.99,,2013-06-16 06:22:00,
2013-06-16 02:33:00,55.0,54.0,30.13,North,359,0.0,0.0,97,0.00,,,-99.99,,2013-06-16 06:33:00,
2013-06-16 02:43:00,55.0,54.0,30.12,North,359,0.0,0.0,97,0.00,,,-99.99,,2013-06-16 06:43:00,
2013-06-16 02:52:00,55.0,54.0,30.12,North,359,0.0,0.0,97,0.00,,,-99.99,,2013-06-16 06:52:00,
2013-06-16 03:01:00,55.0,54.0,30.13,North,359,0.0,0.0,97,0.00,,,-99.99,,2013-06-16 07:01:00,
2013-06-16 03:12:00,55.0,54.0,30.13,North,359,0.0,0.0,97,0.00,,,-99.99,,2013-06-16 07:12:00,
2013-06-16 03:22:00,55.0,54.0,30.14,North,359,0.0,0.0,97,0.00,,,-99.99,,2013-06-16 07:22:00,
2013-06-16 03:33:00,55.0,54.0,30.14,North,359,0.0,0.0,97,0.00,,,-99.99,,2013-06-16 07:33:00,
2013-06-16 03:43:00,55.0,54.0,30.13,North,359,0.0,0.0,97,0.00,,,-99.99,,2013-06-16 07:43:00,
2013-06-16 03:53:00,55.0,54.0,30.13,North,359,0.0,0.0,97,0.00,,,-99.99,,2013-06-16 07:53:00,
2013-06-16 04:02:00,55.0,54.0,30.13,North,359,0.0,0.0,97,0.00,,,-99.99,,2013-06-16 08:02:00,
2013-06-16 04:12:00,55.0,54.0,30.13,North,359,0.0,0.0,97,0.00,,,-99.99,,2013-06-16 08:12:00,
2013-06-16 04:22:00,55.0,54.0,30.13,North,359,0.0,0.0,97,0.00,,,-99.99,,2013-06-16 08:22:00,
2013-06-16 04:33:00,55.0,54.0,30.12,North,359,0.0,0.0,97,0.00,,,-99.99,,2013-06-16 08:33:00,
2013-06-16 04:43:00,55.0,54.0,30.12,North,359,0.0,0.0,97,0.00,,,-99.99,,2013-06-16 08:43:00,
2013-06-16 04:54:00,55.0,54.0,30.12,North,359,0.0,0.0,97,0.00,,,-99.99,,2013-06-16 08:54:00,
2013-06-16 05:02:00,55.0,54.0,30.12,North,359,0.0,0.0,97,0.00,,,-99.99,,2013-06-16 09:02:00,
2013-06-16 05:11:00,55.0,54.0,30.12,North,359,0.0,0.0,97,0.00,,,-99.99,,2013-06-16 09:11:00,
2013-06-16 05:22:00,55.0,54.0,30.12,North,359,0.0,0.0,97,0.00,,,-99.99,,2013-06-16 09:22:00,
2013-06-16 05:33:00,55.0,54.0,30.13,North,359,0.0,0.0,96,0.00,,,-99.99,,2013-06-16 09:33:00,
2013-06-16 05:43:00,55.0,54.0,30.13,North,359,0.0,0.0,96,0.00,,,-99.99,,2013-06-16 09:43:00,
2013-06-16 05:52:00,54.0,53.0,30.13,North,359,0.0,0.0,96,0.00,,,-99.99,,2013-06-16 09:52:00,
2013-06-16 06:02:00,54.0,53.0,30.13,North,359,0.0,0.0,96,0.00,,,-99.99,,2013-06-16 10:02:00,
2013-06-16 06:12:00,54.0,53.0,30.14,North,359,0.0,0.0,96,0.00,,,-99.99,,2013-06-16 10:12:00,
2013-06-16 06:22:00,54.0,53.0,30.14,North,359,0.0,0.0,96,0.00,,,-99.99,,2013-06-16 10:22:00,
2013-06-16 06:33:00,54.0,53.0,30.14,North,359,0.0,0.0,96,0.00,,,-99.99,,2013-06-16 10:33:00,
2013-06-16 06:43:00,54.0,53.0,30.14,North,359,0.0,0.0,96,0.00,,,-99.99,,2013-06-16 10:43:00,
2013-06-16 06:53:00,54.0,53.0,30.14,North,359,0.0,0.0,96,0.00,,,-99.99,,2013-06-16 10:53:00,
2013-06-16 07:02:00,55.0,54.0,30.15,North,359,0.0,0.0,96,0.00,,,-99.99,,2013-06-16 11:02:00,
2013-06-16 07:12:00,55.0,54.0,30.15,North,359,0.0,0.0,96,0.00,,,-99.99,,2013-06-16 11:12:00,
2013-06-16 07:22:00,56.0,55.0,30.15,North,359,0.0,0.0,96,0.00,,,-99.99,,2013-06-16 11:22:00,
2013-06-16 07:34:00,56.0,55.0,30.15,North,359,0.0,0.0,96,0.00,,,-99.99,,2013-06-16 11:34:00,
2013-06-16 07:43:00,57.0,56.0,30.15,North,359,0.0,0.0,96,0.00,,,-99.99,,2013-06-16 11:43:00,
2013-06-16 07:53:00,58.0,57.0,30.15,North,359,0.0,0.0,95,0.00,,,-99.99,,2013-06-16 11:53:00,
2013-06-16 08:02:00,58.0,57.0,30.16,North,359,0.0,0.0,95,0.00,,,-99.99,,2013-06-16 12:02:00,
2013-06-16 08:12:00,58.0,57.0,30.16,North,359,0.0,0.0,95,0.00,,,-99.99,,2013-06-16 12:12:00,
2013-06-16 08:22:00,58.0,57.0,30.16,North,359,0.0,0.0,95,0.00,,,-99.99,,2013-06-16 12:22:00,
2013-06-16 08:33:00,59.0,58.0,30.16,North,359,0.0,0.0,95,0.00,,,-99.99,,2013-06-16 12:33:00,
2013-06-16 08:42:00,60.0,59.0,30.16,North,359,0.0,0.0,95,0.00,,,-99.99,,2013-06-16 12:42:00,
2013-06-16 08:53:00,60.0,59.0,30.16,North,359,0.0,0.0,95,0.00,,,-99.99,,2013-06-16 12:53:00,
2013-06-16 09:01:00,60.0,59.0,30.16,North,359,0.0,0.0,95,0.00,,,-99.99,,2013-06-16 13:01:00,
2013-06-16 09:11:00,63.0,61.0,30.17,North,359,0.0,0.0,93,0.00,,,-99.99,,2013-06-16 13:11:00,
2013-06-16 09:22:00,63.0,61.0,30.17,North,359,0.0,0.0,93,0.00,,,-99.99,,2013-06-16 13:22:00,
2013-06-16 09:34:00,64.0,62.0,30.17,North,359,0.0,0.0,93,0.00,,,-99.99,,2013-06-16 13:34:00,
2013-06-16 09:43:00,65.0,62.0,30.17,North,359,0.0,0.0,91,0.00,,,-99.99,,2013-06-16 13:43:00,
2013-06-16 09:53:00,66.0,63.0,30.17,North,359,0.0,0.0,89,0.00,,,-99.99,,2013-06-16 13:53:00,
2013-06-16 10:02:00,67.0,64.0,30.17,North,359,0.0,0.0,90,0.00,,,-99.99,,2013-06-16 14:02:00,
2013-06-16 10:12:00,67.0,64.0,30.17,North,359,0.0,0.0,90,0.00,,,-99.99,,2013-06-16 14:12:00,
2013-06-16 10:22:00,67.0,64.0,30.17,North,359,0.0,0.0,90,0.00,,,-99.99,,2013-06-16 14:22:00,
2013-06-16 10:34:00,68.0,64.0,30.16,North,359,0.0,0.0,86,0.00,,,-99.99,,2013-06-16 14:34:00,
2013-06-16 10:43:00,68.0,63.0,30.16,North,359,0.0,0.0,85,0.00,,,-99.99,,2013-06-16 14:43:00,
2013-06-16 10:53:00,68.0,63.0,30.16,North,359,0.0,0.0,85,0.00,,,-99.99,,2013-06-16 14:53:00,
2013-06-16 11:02:00,67.0,63.0,30.16,North,359,0.0,0.0,88,0.00,,,-99.99,,2013-06-16 15:02:00,
2013-06-16 11:12:00,68.0,63.0,30.16,North,359,0.0,0.0,83,0.00,,,-99.99,,2013-06-16 15:12:00,
2013-06-16 11:23:00,68.0,63.0,30.16,North,359,0.0,0.0,83,0.00,,,-99.99,,2013-06-16 15:23:00,
2013-06-16 11:34:00,66.0,63.0,30.17,North,359,0.0,0.0,89,0.00,,,-99.99,,2013-06-16 15:34:00,
2013-06-16 11:43:00,66.0,63.0,30.17,North,359,0.0,0.0,89,0.00,,,-99.99,,2013-06-16 15:43:00,
2013-06-16 11:52:00,67.0,63.0,30.17,North,359,0.0,0.0,88,0.00,,,-99.99,,2013-06-16 15:52:00,
2013-06-16 12:02:00,67.0,63.0,30.17,North,359,0.0,0.0,88,0.00,,,-99.99,,2013-06-16 16:02:00,
2013-06-16 12:12:00,67.0,63.0,30.17,North,359,0.0,0.0,88,0.00,,,-99.99,,2013-06-16 16:12:00,
2013-06-16 12:23:00,67.0,63.0,30.17,North,359,0.0,0.0,88,0.00,,,-99.99,,2013-06-16 16:23:00,
2013-06-16 12:33:00,65.0,62.0,30.16,North,359,0.0,0.0,91,0.00,,,-99.99,,2013-06-16 16:33:00,
2013-06-16 12:43:00,66.0,63.0,30.16,North,359,0.0,0.0,89,0.00,,,-99.99,,2013-06-16 16:43:00,
2013-06-16 12:53:00,68.0,63.0,30.16,North,359,0.0,0.0,83,0.00,,,-99.99,,2013-06-16 16:53:00,
2013-06-16 13:02:00,67.0,62.0,30.16,North,359,0.0,0.0,84,0.00,,,-99.99,,2013-06-16 17:02:00,
2013-06-16 13:12:00,66.0,62.0,30.15,North,359,0.0,0.0,88,0.00,,,-99.99,,2013-06-16 17:12:00,
2013-06-16 13:22:00,66.0,63.0,30.15,North,359,0.0,0.0,89,0.00,,,-99.99,,2013-06-16 17:22:00,
2013-06-16 13:34:00,66.0,63.0,30.15,North,359,0.0,0.0,90,0.00,,,-99.99,,2013-06-16 17:34:00,
2013-06-16 13:43:00,66.0,63.0,30.15,North,359,0.0,0.0,90,0.00,,,-99.99,,2013-06-16 17:43:00,
2013-06-16 13:53:00,66.0,63.0,30.15,North,359,0.0,0.0,90,0.00,,,-99.99,,2013-06-16 17:53:00,
2013-06-16 14:02:00,67.0,64.0,30.14,North,359,0.0,0.0,89,0.00,,,-99.99,,2013-06-16 18:02:00,
2013-06-16 14:12:00,67.0,64.0,30.14,North,359,0.0,0.0,91,0.00,,,-99.99,,2013-06-16 18:12:00,
2013-06-16 14:22:00,68.0,64.0,30.14,North,359,0.0,0.0,88,0.00,,,-99.99,,2013-06-16 18:22:00,
2013-06-16 14:33:00,68.0,64.0,30.14,North,359,0.0,0.0,88,0.00,,,-99.99,,2013-06-16 18:33:00,
2013-06-16 14:43:00,68.0,64.0,30.14,North,359,0.0,0.0,86,0.00,,,-99.99,,2013-06-16 18:43:00,
2013-06-16 14:52:00,69.0,64.0,30.14,North,359,0.0,0.0,83,0.00,,,-99.99,,2013-06-16 18:52:00,
2013-06-16 15:01:00,69.0,64.0,30.14,North,359,0.0,0.0,83,0.00,,,-99.99,,2013-06-16 19:01:00,
2013-06-16 15:11:00,69.0,64.0,30.14,North,359,0.0,0.0,83,0.00,,,-99.99,,2013-06-16 19:11:00,
2013-06-16 15:22:00,69.0,64.0,30.14,North,359,0.0,0.0,83,0.00,,,-99.99,,2013-06-16 19:22:00,
2013-06-16 15:34:00,69.0,64.0,30.13,North,359,0.0,0.0,83,0.00,,,-99.99,,2013-06-16 19:34:00,
2013-06-16 15:43:00,69.0,64.0,30.13,North,359,0.0,0.0,83,0.00,,,-99.99,,2013-06-16 19:43:00,
2013-06-16 15:54:00,71.0,65.0,30.12,North,359,0.0,0.0,80,0.00,,,-99.99,,2013-06-16 19:54:00,
2013-06-16 16:02:00,70.0,64.0,30.13,North,359,0.0,0.0,82,0.00,,,-99.99,,2013-06-16 20:02:00,
2013-06-16 16:12:00,70.0,64.0,30.13,North,359,0.0,0.0,82,0.00,,,-99.99,,2013-06-16 20:12:00,
2013-06-16 16:22:00,69.0,64.0,30.13,North,359,0.0,0.0,83,0.00,,,-99.99,,2013-06-16 20:22:00,
2013-06-16 16:33:00,69.0,64.0,30.13,North,359,0.0,0.0,83,0.00,,,-99.99,,2013-06-16 20:33:00,
2013-06-16 16:42:00,69.0,64.0,30.13,North,359,0.0,0.0,84,0.00,,,-99.99,,2013-06-16 20:42:00,
2013-06-16 16:53:00,68.0,64.0,30.12,North,359,0.0,0.0,86,0.00,,,-99.99,,2013-06-16 20:53:00,
2013-06-16 17:02:00,69.0,64.0,30.12,North,359,0.0,0.0,83,0.00,,,-99.99,,2013-06-16 21:02:00,
2013-06-16 17:11:00,69.0,64.0,30.12,North,359,0.0,0.0,83,0.00,,,-99.99,,2013-06-16 21:11:00,
2013-06-16 17:22:00,69.0,65.0,30.12,North,359,0.0,0.0,86,0.00,,,-99.99,,2013-06-16 21:22:00,
2013-06-16 17:33:00,69.0,65.0,30.11,North,359,0.0,0.0,86,0.00,,,-99.99,,2013-06-16 21:33:00,
2013-06-16 17:42:00,69.0,64.0,30.12,North,359,0.0,0.0,83,0.00,,,-99.99,,2013-06-16 21:42:00,
2013-06-16 17:53:00,69.0,64.0,30.12,North,359,0.0,0.0,83,0.00,,,-99.99,,2013-06-16 21:53:00,
2013-06-16 18:01:00,69.0,64.0,30.12,North,359,0.0,0.0,83,0.00,,,-99.99,,2013-06-16 22:01:00,
2013-06-16 18:12:00,69.0,64.0,30.12,North,359,0.0,0.0,83,0.00,,,-99.99,,2013-06-16 22:12:00,
2013-06-16 18:22:00,69.0,65.0,30.11,North,359,0.0,0.0,87,0.00,,,-99.99,,2013-06-16 22:22:00,
2013-06-16 18:32:00,67.0,64.0,30.11,North,359,0.0,0.0,90,0.00,,,-99.99,,2013-06-16 22:32:00,
2013-06-16 18:42:00,66.0,64.0,30.11,North,359,0.0,0.0,92,0.00,,,-99.99,,2013-06-16 22:42:00,
2013-06-16 18:52:00,66.0,64.0,30.11,North,359,0.0,0.0,92,0.00,,,-99.99,,2013-06-16 22:52:00,
2013-06-16 19:02:00,66.0,64.0,30.11,North,359,0.0,0.0,92,0.00,,,-99.99,,2013-06-16 23:02:00,
2013-06-16 19:11:00,66.0,63.0,30.11,North,359,0.0,0.0,89,0.00,,,-99.99,,2013-06-16 23:11:00,
2013-06-16 19:22:00,66.0,63.0,30.11,North,359,0.0,0.0,90,0.00,,,-99.99,,2013-06-16 23:22:00,
2013-06-16 19:32:00,66.0,63.0,30.11,North,359,0.0,0.0,90,0.00,,,-99.99,,2013-06-16 23:32:00,
2013-06-16 19:42:00,66.0,63.0,30.11,North,359,0.0,0.0,90,0.00,,,-99.99,,2013-06-16 23:42:00,
2013-06-16 19:52:00,65.0,63.0,30.11,North,359,0.0,0.0,94,0.00,,,-99.99,,2013-06-16 23:52:00,
2013-06-16 20:02:00,64.0,63.0,30.11,North,359,0.0,0.0,95,0.00,,,-99.99,,2013-06-17 00:02:00,
2013-06-16 20:12:00,64.0,63.0,30.12,North,359,0.0,0.0,95,0.00,,,-99.99,,2013-06-17 00:12:00,
2013-06-16 20:22:00,63.0,62.0,30.12,North,359,0.0,0.0,96,0.00,,,-99.99,,2013-06-17 00:22:00,
2013-06-16 20:32:00,63.0,62.0,30.12,North,359,0.0,0.0,96,0.00,,,-99.99,,2013-06-17 00:32:00,
2013-06-16 20:43:00,63.0,62.0,30.12,North,359,0.0,0.0,96,0.00,,,-99.99,,2013-06-17 00:43:00,
2013-06-16 20:52:00,63.0,62.0,30.11,North,359,0.0,0.0,96,0.00,,,-99.99,,2013-06-17 00:52:00,
2013-06-16 21:02:00,62.0,61.0,30.12,North,359,0.0,0.0,96,0.00,,,-99.99,,2013-06-17 01:02:00,
2013-06-16 21:12:00,62.0,61.0,30.12,North,359,0.0,0.0,96,0.00,,,-99.99,,2013-06-17 01:12:00,
2013-06-16 21:22:00,62.0,61.0,30.12,North,359,0.0,0.0,96,0.00,,,-99.99,,2013-06-17 01:22:00,
2013-06-16 21:32:00,62.0,61.0,30.11,North,359,0.0,0.0,97,0.00,,,-99.99,,2013-06-17 01:32:00,
2013-06-16 21:43:00,62.0,61.0,30.11,North,359,0.0,0.0,97,0.00,,,-99.99,,2013-06-17 01:43:00,
2013-06-16 21:53:00,61.0,60.0,30.11,North,359,0.0,0.0,97,0.00,,,-99.99,,2013-06-17 01:53:00,
2013-06-16 22:02:00,61.0,60.0,30.11,North,359,0.0,0.0,97,0.00,,,-99.99,,2013-06-17 02:02:00,
2013-06-16 22:12:00,61.0,60.0,30.11,North,359,0.0,0.0,97,0.00,,,-99.99,,2013-06-17 02:12:00,
2013-06-16 22:22:00,61.0,60.0,30.12,North,359,0.0,0.0,97,0.00,,,-99.99,,2013-06-17 02:22:00,
2013-06-16 22:34:00,61.0,60.0,30.12,North,359,0.0,0.0,97,0.00,,,-99.99,,2013-06-17 02:34:00,
2013-06-16 22:43:00,61.0,60.0,30.13,North,359,0.0,0.0,97,0.00,,,-99.99,,2013-06-17 02:43:00,
2013-06-16 22:53:00,61.0,60.0,30.13,North,359,0.0,0.0,97,0.00,,,-99.99,,2013-06-17 02:53:00,
2013-06-16 23:02:00,61.0,60.0,30.13,North,359,0.0,0.0,97,0.00,,,-99.99,,2013-06-17 03:02:00,
2013-06-16 23:12:00,61.0,60.0,30.13,North,359,0.0,0.0,97,0.00,,,-99.99,,2013-06-17 03:12:00,
2013-06-16 23:22:00,60.0,59.0,30.12,North,359,0.0,0.0,97,0.00,,,-99.99,,2013-06-17 03:22:00,
2013-06-16 23:33:00,60.0,59.0,30.12,North,359,0.0,0.0,97,0.00,,,-99.99,,2013-06-17 03:33:00,
2013-06-16 23:44:00,60.0,59.0,30.13,North,359,0.0,0.0,97,0.00,,,-99.99,,2013-06-17 03:44:00,
2013-06-16 23:54:00,60.0,59.0,30.13,North,359,0.0,0.0,97,0.00,,,-99.99,,2013-06-17 03:54:00,